Weather Roundup
Issued by NWS Chicago, IL

Home | Current Version | Previous Version | Graphics & Text | Print | Product List | Glossary On
Versions: 1 2 3 4 5 6 7 8 9 10 11 12 13 14 15 16 17 18 19 20 21 22 23 24 25 26 27 28 29 30 31 32 33 34 35 36 37 38 39 40 41 42 43 44 45 46 47 48 49 50
000
NZUS59 KLOT 161409
HRRLOT

CHICAGO AREA WEATHER ROUNDUP
NATIONAL WEATHER SERVICE CHICAGO/ROMEOVILLE IL
900 AM CDT MON OCT 16 2017

NOTE: "FAIR" INDICATES FEW OR NO CLOUDS BELOW 12,000 FEET WITH NO
SIGNIFICANT WEATHER AND/OR OBSTRUCTIONS TO VISIBILITY.

* THESE STATIONS ARE NOT UNDER NWS QUALITY CONTROL. THEY ALSO MAY NOT
  REPORT WEATHER SUCH AS PRECIPITATION OR FOG.

ILZ005-006-012>014-019>023-161500-
NORTHEAST ILLINOIS

CITY           SKY/WX    TMP DP  RH WIND       PRES   REMARKS
OHARE          MOSUNNY   48  40  73 W7        30.31S
MIDWAY         MOSUNNY   48  41  76 W8        30.32R
AURORA         SUNNY     46  42  86 SW8       30.33R FOG
LANSING*       SUNNY     47  43  84 W7        30.34R
JOLIET*        SUNNY     48  44  85 S3        30.34S
WAUKEGAN       SUNNY     49  42  77 SW5       30.30R
DUPAGE AIRPORT SUNNY     46  43  89 S5        30.31S
WHEELING       SUNNY     49  42  77 W5        30.32S
KANKAKEE*      SUNNY     47  41  78 W6        30.37R
MORRIS*        SUNNY     46  42  86 SW6       30.33S
LEWIS AIRPORT* SUNNY     46  41  83 SW5       30.34R
NORTHERLY ISL    N/A     49  39  68 SW8         N/A
$$

WIZ051-052-058>065-066-070>072-161500-
SOUTHEAST WISCONSIN

CITY           SKY/WX    TMP DP  RH WIND       PRES   REMARKS
MILWAUKEE      MOSUNNY   50  41  71 W6        30.29R
KENOSHA*       SUNNY     47  42  83 W6        30.30R
RACINE*        SUNNY     48  42  80 W3        30.31R
BURLINGTON     SUNNY     46  43  89 S3        30.29S
WAUKESHA       SUNNY     45  41  87 CALM      30.30R
WEST BEND      SUNNY     46  41  81 SW3       30.28S
$$

INZ001>003-010>013-019-020-161500-
NORTHWEST INDIANA

CITY           SKY/WX    TMP DP  RH WIND       PRES   REMARKS
GARY*          MOSUNNY   48  41  76 W12       30.34R
MICHIGAN CITY* NOT AVBL
RENSSELAER*    NOT AVBL
VALPARAISO     SUNNY     50  41  71 W8        30.33R
$$

LMZ740>746-161500-
SOUTHERN LAKE MICHIGAN

STATION/POSITION TIME  SKY/WX   TEMP WIND        PRES    VSBY
                                AIR  DIR/SP/G
                 (UTC)          (F)  (DEG/KT/KT) (MB)    (MI)
HARRISON CRIB    1330            49  280/ 11/ 12   N/A
BURNHAM HARBOR   1400            49  260/  5/ 10   N/A
CALUMET HARBOR   1342            49  230/  5/  7 1026.0R
BURNS HARBOR     1340            50  240/ 10/ 11 1027.1R
MICHIGAN CITY    1340            51  250/ 20/ 21   N/A
$$

ABBREVIATIONS USED IN REMARKS
   TC - TEMPERATURE IN CELSIUS
  WCI - WIND CHILL INDEX
   HX - HEAT INDEX
  VSB - VISIBILITY
$$




USA.gov is the U.S. government's official web portal to all federal, state and local government web resources and services.